Home > Time Zones > World Clock > Weather > U.S.A. > Napa > Past weeks

Flag for U.S.A. Weather past 2 weeks in Napa, California, U.S.A.

Now
51 °F

Clear.


Feels Like: 47 °F
Forecast: 36 / 64 °F
Wind: 10 mph from West

Location: Napa County Airport

Current Time: Mar 3, 2015 at 7:29:47 PM

Latest Report: Mar 3, 2015 at 6:54 PM


Visibility: 10 mi

Pressure: 29.95 "Hg

Humidity: 66%

Dew point: 40 °F

Location of NapaLocation

Historic Weather in Napa — Graph

°F

Napa temperature yesterday

Maximum temperature yesterday: 58 °F (at 12:54 PM)
Minimum temperature yesterday: 39 °F (at 12:54 AM)
Average temperature yesterday: 48 °F

Past Weeks' High & Low Weather Summary

 TemperatureHumidityPressure
High70 °F (Feb 26, 2:54 PM)100% (Feb 16, 10:59 PM)30.34 "Hg (Feb 16, 10:59 PM)
Low30 °F (Feb 24, 3:54 AM)21% (Feb 23, 6:54 AM)29.68 "Hg (Feb 27, 5:54 PM)
Average51 °F77%29.98 "Hg
* Reported Feb 16 5:54 PM — Mar 3 5:54 PM, Napa, Weather by CustomWeather, © 2015

Note: Actual official high and low records may vary slightly from our data, if they occured in-between our weather recording intervals... More about our weather records

Advertising

Napa weather history for previous 24 hours

 ConditionsComfort  
Time TempWeatherWind HumidityBarometerVisibility
5:54 PM
Tue, Mar 3
55 °FSunny.9 mph67%29.94 "Hg10 mi
4:54 PM57 °FSunny.7 mph69%29.93 "Hg10 mi
3:54 PM61 °FPassing clouds.6 mph54%29.94 "Hg10 mi
2:54 PM61 °FPassing clouds.5 mph52%29.96 "Hg10 mi
1:54 PM61 °FSunny.7 mph56%29.97 "Hg10 mi
12:54 PM59 °FScattered clouds.7 mph58%29.99 "Hg10 mi
11:54 AM58 °FSunny.8 mph62%30.01 "Hg10 mi
10:54 AM57 °FSunny.5 mph67%30.03 "Hg10 mi
9:54 AM53 °FSunny.No wind72%30.04 "Hg10 mi
8:54 AM50 °FSunny.No wind80%30.04 "Hg10 mi
7:54 AM43 °FSunny.5 mph89%30.02 "Hg10 mi
6:54 AM37 °FSunny.5 mph96%30.00 "Hg10 mi
5:54 AM36 °FClear.No wind92%29.99 "Hg10 mi
4:54 AM36 °FClear.No wind97%29.98 "Hg10 mi
3:54 AM39 °FClear.5 mph93%29.97 "Hg10 mi
2:54 AM39 °FClear.No wind96%29.97 "Hg10 mi
1:54 AM41 °FClear.No wind89%29.98 "Hg10 mi
12:54 AM42 °FClear.7 mph89%29.97 "Hg10 mi
11:54 PM
Mon, Mar 2
43 °FClear.6 mph89%29.96 "Hg10 mi
10:54 PM44 °FClear.6 mph93%29.95 "Hg10 mi
9:54 PM47 °FPassing clouds.No wind83%29.93 "Hg10 mi
8:54 PM48 °FPassing clouds.3 mph83%29.91 "Hg10 mi
7:54 PM49 °FOvercast.No wind86%29.89 "Hg10 mi
Weather by CustomWeather, © 2015

See weather overviewHow to use our weather pages